Regional Weather Roundup
Issued by NWS

Home | Current Version | Previous Version | Graphics & Text | Print | Product List | Glossary On
Versions: 1 2 3 4 5 6 7 8 9 10 11 12 13 14 15 16 17 18 19 20 21 22 23 24 25 26 27 28 29 30 31 32 33 34 35 36 37 38 39 40 41 42 43 44 45 46 47 48 49 50
854
ASUS44 KMEG 222300
RWRTN
TENNESSEE HOURLY STATE WEATHER ROUNDUP
NATIONAL WEATHER SERVICE MEMPHIS TN
500 PM CST MON JAN 22 2018

TNZ002-004-019-021-049-052-054-088>092-230000-
WEST TENNESSEE

CITY           SKY/WX    TMP DP  RH WIND       PRES   REMARKS
MEMPHIS INTL   FAIR      57  31  37 SW17G24   29.77R
NWS MEMPHIS      N/A     58 N/A N/A MISG        N/A
JACKSON        FAIR      58  32  37 W16G23    29.72R
DYERSBURG      FAIR      54  34  46 SW22G33   29.72R
$$

TNZ008-025-027-028-033-062-065-066-230000-
NORTH MIDDLE TENNESSEE

CITY           SKY/WX    TMP DP  RH WIND       PRES   REMARKS
NASHVILLE      FAIR      62  54  74 S21G33    29.68F
CLARKSVILLE    FAIR      60  51  72 S16G25    29.64S
SMYRNA         FAIR      61  54  77 S16G25    29.70F
CROSSVILLE     CLOUDY    54  51  90 S13G22    29.81F
$$

TNZ061-075-076-078-094-096-097-230000-
SOUTH MIDDLE TENNESSEE

CITY           SKY/WX    TMP DP  RH WIND       PRES   REMARKS
$$

TNZ017-018-042-046-047-230000-
NORTHEAST TENNESSEE

CITY           SKY/WX    TMP DP  RH WIND       PRES   REMARKS
TRI CITIES     LGT RAIN  57  49  74 SE6       29.91F
$$

TNZ012-013-036-069-073-074-230000-
CENTRAL EAST TENNESSEE

CITY           SKY/WX    TMP DP  RH WIND       PRES   REMARKS
KNOXVILLE      CLOUDY    60  52  74 SW5       29.82F
$$

TNZ083-085-099-230000-
SOUTHEAST TENNESSEE

CITY           SKY/WX    TMP DP  RH WIND       PRES   REMARKS
CHATTANOOGA    CLOUDY    54  52  93 CALM      29.86F
$$

SKY/WX REPORTED AS FAIR MEANS FEW OR NO CLOUDS BELOW
12 THOUSAND FEET.





USA.gov is the U.S. government's official web portal to all federal, state and local government web resources and services.